Find Starlink 37273

NORAD ID: 68724 Int'l Des: 2026-081 Owner: SPXS Country: US Constellation: starlink operational
LEOCIRCULAR

Live Position

Loading 3D Globe...

About Starlink 37273

Description loading...

Upcoming Passes

Passes for default location (London). Set your location on the main map for personalized predictions.

Altitude History

Loading altitude history...

Two-Line Element Set

1 68724C 26081AA 26105.43451389 .00595300 00000+0 76041-3 0 1056
2 68724 53.1628 237.7332 0007073 304.8494 308.0272 16.06239169 16
Epoch: Apr 15, 2026 • Age: 15 hours

Current Status

Altitude 260.6 km
Velocity 7.75 km/s
Sub-Earth Point -32.00°S, 21.99°W
Launch Date Apr 14, 2026
Age 1 days
Type internet

Technical Details

Classification Payload
Mass 575.00 kg
Dry Mass 530.00 kg
Total Mass 575.00 kg
Length 0.30 m
Diameter 4.10 m
Span 29.00 m
Shape Box + pan
Manufacturer SPXS
Bus Type Starlink V2MO
Phase Status In Orbit
Owner/State SPXS/US

Most Searched